Location: Los Gatos B&B
(42.6926°N, 77.0646°W)
Time: 09:42:08
(UTC-04:00)

SL-16 R/B - Visible Passes

Search period start: 23 August 2017 00:00
Search period end: 02 September 2017 00:00
Orbit: 843 x 847 km, 71.0° (Epoch: 22 August)

Date Brightness Start Highest point End Pass type
(mag) Time Alt. Az. Time Alt. Az. Time Alt. Az.
23 Aug 3.7 01:07:35 31° NW 01:07:35 31° NW 01:11:45 10° N visible
23 Aug 3.9 23:11:39 21° NE 23:11:39 21° NE 23:13:37 10° NE visible
24 Aug 3.7 00:53:30 32° NW 00:53:30 32° NW 00:57:41 10° N visible
24 Aug 3.9 22:57:32 21° NE 22:57:32 21° NE 22:59:31 10° NE visible
25 Aug 3.6 00:39:22 33° NW 00:39:22 33° NW 00:43:38 10° N visible
25 Aug 3.8 22:43:21 21° NE 22:43:21 21° NE 22:45:25 10° NE visible
26 Aug 3.6 00:25:11 34° NW 00:25:11 34° NW 00:29:35 10° N visible
26 Aug 3.8 22:29:05 22° ENE 22:29:05 22° ENE 22:31:18 10° NE visible
27 Aug 3.5 00:10:56 36° NW 00:10:56 36° NW 00:15:32 10° N visible
27 Aug 3.6 22:14:44 23° ENE 22:14:44 23° ENE 22:17:11 10° NE visible
27 Aug 3.4 23:56:33 37° NW 23:56:33 37° NW 00:01:29 10° N visible
28 Aug 3.5 22:00:14 24° ENE 22:00:14 24° ENE 22:03:05 10° NE visible
28 Aug 3.3 23:42:03 39° WNW 23:42:07 39° WNW 23:47:25 10° N visible
29 Aug 3.2 21:45:32 27° ENE 21:45:32 27° ENE 21:48:57 10° NE visible
29 Aug 3.3 23:27:20 39° WNW 23:28:01 40° WNW 23:33:21 10° NNE visible
30 Aug 3.0 21:30:29 29° E 21:30:29 29° E 21:34:50 10° NE visible
30 Aug 3.3 23:12:15 33° W 23:13:55 41° WNW 23:19:17 10° NNE visible
31 Aug 3.0 21:14:42 26° SE 21:15:57 29° ESE 21:20:43 10° NE visible
31 Aug 3.2 22:56:23 21° WSW 22:59:50 43° WNW 23:05:14 10° NNE visible
01 Sep 3.0 20:57:11 10° SSE 21:01:53 28° ESE 21:06:35 10° NE visible
01 Sep 3.2 22:40:21 10° SW 22:45:44 44° WNW 22:51:10 10° NNE visible
